This is the latest recevied weather packets stored in our database for station/object WV8BRW. If no packets are shown the sender has not sent any weather packets the latest 10 day(s).
| Time | Temp. | Humidity | Pressure | Rain* | Wind** | Luminosity | Snow |
|---|---|---|---|---|---|---|---|
| 1777748092 | 12.22° C | 49% | 1014.2 hPa | 0 mm | - | 184 W/m² | - |
| 1777747789 | 12.22° C | 46% | 1014.5 hPa | 0 mm | - | 137 W/m² | - |
| 1777747484 | 13.33° C | 45% | 1014.3 hPa | 0 mm | - | 189 W/m² | - |
| 1777747181 | 13.33° C | 47% | 1014.5 hPa | 0 mm | - | 1053 W/m² | - |
| 1777746877 | 12.22° C | 43% | 1014.5 hPa | 0 mm | - | 340 W/m² | - |
| 1777746572 | 12.22° C | 46% | 1014.7 hPa | 0 mm | - | 451 W/m² | - |
| 1777746268 | 12.22° C | 49% | 1014.5 hPa | 0 mm | - | 541 W/m² | - |
| 1777745964 | 12.22° C | 46% | 1014.8 hPa | 0 mm | - | 223 W/m² | - |
| 1777745663 | 12.22° C | 45% | 1014.5 hPa | 0 mm | - | 185 W/m² | - |
| 1777745361 | 12.22° C | 47% | 1014.5 hPa | 0 mm | - | 271 W/m² | - |
| 1777745058 | 12.22° C | 45% | 1014.6 hPa | 0 mm | - | 234 W/m² | - |
| 1777744754 | 12.22° C | 47% | 1014.6 hPa | 0 mm | - | 327 W/m² | - |
| 1777744449 | 12.22° C | 47% | 1014.7 hPa | 0 mm | - | 273 W/m² | - |
| 1777744145 | 12.22° C | 47% | 1015 hPa | 0 mm | - | 316 W/m² | - |
| 1777743842 | 12.22° C | 45% | 1015 hPa | 0 mm | - | 238 W/m² | - |
| 1777743539 | 11.67° C | 47% | 1015.1 hPa | 0 mm | - | 428 W/m² | - |
| 1777743236 | 11.67° C | 46% | 1015 hPa | 0 mm | - | 206 W/m² | - |
| 1777742934 | 12.78° C | 49% | 1014.9 hPa | 0 mm | - | 150 W/m² | - |
| 1777742631 | 12.78° C | 45% | 1014.8 hPa | 0 mm | - | 117 W/m² | - |
| 1777742326 | 12.78° C | 44% | 1014.9 hPa | 0 mm | - | 158 W/m² | - |
| 1777742023 | 12.22° C | 44% | 1014.9 hPa | 0 mm | - | 709 W/m² | - |
| 1777741720 | 11.67° C | 49% | 1015.1 hPa | 0 mm | - | 389 W/m² | - |
| 1777741417 | 11.67° C | 49% | 1015.1 hPa | 0 mm | - | 175 W/m² | - |
| 1777741113 | 11.67° C | 48% | 1015.1 hPa | 0 mm | - | 117 W/m² | - |
| 1777740810 | 11.67° C | 50% | 1015 hPa | 0 mm | - | 104 W/m² | - |
* Rain latest hour (hover to see other rain measurements)
** Current wind speed in m/s (hover to see current wind gust speed)